Year,Month,Day,Hour,Minute,Value (Times are PST for temperature in C)
2021,03,28,00,00,-11.90
2021,03,28,00,01,-12.00
2021,03,28,00,02,-12.00
2021,03,28,00,03,-12.10
2021,03,28,00,04,-12.20
2021,03,28,00,05,-12.20
2021,03,28,00,06,-12.20
2021,03,28,00,07,-12.30
2021,03,28,00,08,-12.30
2021,03,28,00,09,-12.30
2021,03,28,00,10,-12.30
2021,03,28,00,11,-12.40
2021,03,28,00,12,-12.40
2021,03,28,00,13,-12.40
2021,03,28,00,14,-12.40
2021,03,28,00,15,-12.50
2021,03,28,00,16,-12.50
2021,03,28,00,17,-12.50
2021,03,28,00,18,-12.60
2021,03,28,00,19,-12.60
2021,03,28,00,20,-12.60
2021,03,28,00,21,-12.50
2021,03,28,00,22,-12.50
2021,03,28,00,23,-12.50
2021,03,28,00,24,-12.50
2021,03,28,00,25,-12.50
2021,03,28,00,26,-12.60
2021,03,28,00,27,-12.60
2021,03,28,00,28,-12.60
2021,03,28,00,29,-12.70
2021,03,28,00,30,-12.70
2021,03,28,00,31,-12.70
2021,03,28,00,32,-12.80
2021,03,28,00,33,-12.80
2021,03,28,00,34,-12.80
2021,03,28,00,35,-12.80
2021,03,28,00,36,-12.90
2021,03,28,00,37,-12.90
2021,03,28,00,38,-12.90
2021,03,28,00,39,-13.00
2021,03,28,00,40,-13.00
2021,03,28,00,41,-13.00
2021,03,28,00,42,-13.00
2021,03,28,00,43,-13.10
2021,03,28,00,44,-13.10
2021,03,28,00,45,-13.10
2021,03,28,00,46,-13.10
2021,03,28,00,47,-13.10
2021,03,28,00,48,-13.20
2021,03,28,00,49,-13.20
2021,03,28,00,50,-13.20
2021,03,28,00,51,-13.20
2021,03,28,00,52,-13.30
2021,03,28,00,53,-13.30
2021,03,28,00,54,-13.30
2021,03,28,00,55,-13.40
2021,03,28,00,56,-13.40
2021,03,28,00,57,-13.40
2021,03,28,00,58,-13.50
2021,03,28,00,59,-13.50
2021,03,28,01,00,-13.50
2021,03,28,01,01,-13.60
2021,03,28,01,02,-13.60
2021,03,28,01,03,-13.60
2021,03,28,01,04,-13.60
2021,03,28,01,05,-13.70
2021,03,28,01,06,-13.70
2021,03,28,01,07,-13.70
2021,03,28,01,08,-13.70
2021,03,28,01,09,-13.80
2021,03,28,01,10,-13.80
2021,03,28,01,11,-13.80
2021,03,28,01,12,-13.80
2021,03,28,01,13,-13.90
2021,03,28,01,14,-13.90
2021,03,28,01,15,-13.90
2021,03,28,01,16,-13.90
2021,03,28,01,17,-14.00
2021,03,28,01,18,-14.00
2021,03,28,01,19,-14.00
2021,03,28,01,20,-14.00
2021,03,28,01,21,-14.10
2021,03,28,01,22,-14.10
2021,03,28,01,23,-14.10
2021,03,28,01,24,-14.10
2021,03,28,01,25,-14.10
2021,03,28,01,26,-14.10
2021,03,28,01,27,-14.10
2021,03,28,01,28,-14.10
2021,03,28,01,29,-14.10
2021,03,28,01,30,-14.10
2021,03,28,01,31,-14.10
2021,03,28,01,32,-14.10
2021,03,28,01,33,-14.10
2021,03,28,01,34,-14.10
2021,03,28,01,35,-14.10
2021,03,28,01,36,-14.10
2021,03,28,01,37,-14.20
2021,03,28,01,38,-14.20
2021,03,28,01,39,-14.20
2021,03,28,01,40,-14.20
2021,03,28,01,41,-14.30
2021,03,28,01,42,-14.30
2021,03,28,01,43,-14.30
2021,03,28,01,44,-14.20
2021,03,28,01,45,-14.10
2021,03,28,01,46,-14.00
2021,03,28,01,47,-13.90
2021,03,28,01,48,-13.80
2021,03,28,01,49,-13.80
2021,03,28,01,50,-13.80
2021,03,28,01,51,-13.80
2021,03,28,01,52,-13.80
2021,03,28,01,53,-13.90
2021,03,28,01,54,-13.90
2021,03,28,01,55,-13.90
2021,03,28,01,56,-14.00
2021,03,28,01,57,-14.00
2021,03,28,01,58,-14.10
2021,03,28,01,59,-14.10
2021,03,28,02,00,-14.20
2021,03,28,02,01,-14.20
2021,03,28,02,02,-14.20
2021,03,28,02,03,-14.20
2021,03,28,02,04,-14.30
2021,03,28,02,05,-14.30
2021,03,28,02,06,-14.40
2021,03,28,02,07,-14.40
2021,03,28,02,08,-14.40
2021,03,28,02,09,-14.40
2021,03,28,02,10,-14.50
2021,03,28,02,11,-14.50
2021,03,28,02,12,-14.60
2021,03,28,02,13,-14.60
2021,03,28,02,14,-14.70
2021,03,28,02,15,-14.70
2021,03,28,02,16,-14.70
2021,03,28,02,17,-14.70
2021,03,28,02,18,-14.80
2021,03,28,02,19,-14.80
2021,03,28,02,20,-14.80
2021,03,28,02,21,-14.80
2021,03,28,02,22,-14.80
2021,03,28,02,23,-14.80
2021,03,28,02,24,-14.90
2021,03,28,02,25,-14.90
2021,03,28,02,26,-14.90
2021,03,28,02,27,-15.00
2021,03,28,02,28,-15.00
2021,03,28,02,29,-15.00
2021,03,28,02,30,-15.10
2021,03,28,02,31,-15.10
2021,03,28,02,32,-15.10
2021,03,28,02,33,-15.20
2021,03,28,02,34,-15.20
2021,03,28,02,35,-15.20
2021,03,28,02,36,-15.20
2021,03,28,02,37,-15.30
2021,03,28,02,38,-15.30
2021,03,28,02,39,-15.30
2021,03,28,02,40,-15.30
2021,03,28,02,41,-15.40
2021,03,28,02,42,-15.40
2021,03,28,02,43,-15.40
2021,03,28,02,44,-15.50
2021,03,28,02,45,-15.50
2021,03,28,02,46,-15.50
2021,03,28,02,47,-15.60
2021,03,28,02,48,-15.60
2021,03,28,02,49,-15.60
2021,03,28,02,50,-15.60
2021,03,28,02,51,-15.60
2021,03,28,02,52,-15.70
2021,03,28,02,53,-15.70
2021,03,28,02,54,-15.70
2021,03,28,02,55,-15.60
2021,03,28,02,56,-15.60
2021,03,28,02,57,-15.60
2021,03,28,02,58,-15.60
2021,03,28,02,59,-15.60
2021,03,28,03,00,-15.70
2021,03,28,03,01,-15.70
2021,03,28,03,02,-15.70
2021,03,28,03,03,-15.70
2021,03,28,03,04,-15.70
2021,03,28,03,05,-15.70
2021,03,28,03,06,-15.70
2021,03,28,03,07,-15.70
2021,03,28,03,08,-15.70
2021,03,28,03,09,-15.80
2021,03,28,03,10,-15.80
2021,03,28,03,11,-15.80
2021,03,28,03,12,-15.80
2021,03,28,03,13,-15.80
2021,03,28,03,14,-15.80
2021,03,28,03,15,-15.80
2021,03,28,03,16,-15.70
2021,03,28,03,17,-15.70
2021,03,28,03,18,-15.80
2021,03,28,03,19,-15.80
2021,03,28,03,20,-15.80
2021,03,28,03,21,-15.80
2021,03,28,03,22,-15.80
2021,03,28,03,23,-15.90
2021,03,28,03,24,-15.90
2021,03,28,03,25,-15.90
2021,03,28,03,26,-16.00
2021,03,28,03,27,-16.00
2021,03,28,03,28,-16.00
2021,03,28,03,29,-16.00
2021,03,28,03,30,-16.10
2021,03,28,03,31,-16.10
2021,03,28,03,32,-16.10
2021,03,28,03,33,-16.20
2021,03,28,03,34,-16.20
2021,03,28,03,35,-16.20
2021,03,28,03,36,-16.20
2021,03,28,03,37,-16.20
2021,03,28,03,38,-16.20
2021,03,28,03,39,-16.20
2021,03,28,03,40,-16.20
2021,03,28,03,41,-16.20
2021,03,28,03,42,-16.20
2021,03,28,03,43,-16.20
2021,03,28,03,44,-16.20
2021,03,28,03,45,-16.30
2021,03,28,03,46,-16.30
2021,03,28,03,47,-16.30
2021,03,28,03,48,-16.40
2021,03,28,03,49,-16.40
2021,03,28,03,50,-16.40
2021,03,28,03,51,-16.40
2021,03,28,03,52,-16.40
2021,03,28,03,53,-16.40
2021,03,28,03,54,-16.40
2021,03,28,03,55,-16.40
2021,03,28,03,56,-16.40
2021,03,28,03,57,-16.50
2021,03,28,03,58,-16.50
2021,03,28,03,59,-16.50
2021,03,28,04,00,-16.50
2021,03,28,04,01,-16.60
2021,03,28,04,02,-16.60
2021,03,28,04,03,-16.60
2021,03,28,04,04,-16.50
2021,03,28,04,05,-16.40
2021,03,28,04,06,-16.40
2021,03,28,04,07,-16.30
2021,03,28,04,08,-16.30
2021,03,28,04,09,-16.30
2021,03,28,04,10,-16.30
2021,03,28,04,11,-16.20
2021,03,28,04,12,-16.20
2021,03,28,04,13,-16.20
2021,03,28,04,14,-16.30
2021,03,28,04,15,-16.30
2021,03,28,04,16,-16.30
2021,03,28,04,17,-16.30
2021,03,28,04,18,-16.30
2021,03,28,04,19,-16.40
2021,03,28,04,20,-16.40
2021,03,28,04,21,-16.40
2021,03,28,04,22,-16.50
2021,03,28,04,23,-16.50
2021,03,28,04,24,-16.60
2021,03,28,04,25,-16.60
2021,03,28,04,26,-16.60
2021,03,28,04,27,-16.60
2021,03,28,04,28,-16.70
2021,03,28,04,29,-16.70
2021,03,28,04,30,-16.60
2021,03,28,04,31,-16.50
2021,03,28,04,32,-16.40
2021,03,28,04,33,-16.40
2021,03,28,04,34,-16.40
2021,03,28,04,35,-16.40
2021,03,28,04,36,-16.40
2021,03,28,04,37,-16.40
2021,03,28,04,38,-16.40
2021,03,28,04,39,-16.40
2021,03,28,04,40,-16.40
2021,03,28,04,41,-16.40
2021,03,28,04,42,-16.50
2021,03,28,04,43,-16.50
2021,03,28,04,44,-16.60
2021,03,28,04,45,-16.60
2021,03,28,04,46,-16.60
2021,03,28,04,47,-16.70
2021,03,28,04,48,-16.60
2021,03,28,04,49,-16.60
2021,03,28,04,50,-16.60
2021,03,28,04,51,-16.50
2021,03,28,04,52,-16.50
2021,03,28,04,53,-16.40
2021,03,28,04,54,-16.40
2021,03,28,04,55,-16.40
2021,03,28,04,56,-16.40
2021,03,28,04,57,-16.40
2021,03,28,04,58,-16.40
2021,03,28,04,59,-16.50
2021,03,28,05,00,-16.50
2021,03,28,05,01,-16.50
2021,03,28,05,02,-16.60
2021,03,28,05,03,-16.70
2021,03,28,05,04,-16.70
2021,03,28,05,05,-16.70
2021,03,28,05,06,-16.80
2021,03,28,05,07,-16.90
2021,03,28,05,08,-17.00
2021,03,28,05,09,-17.00
2021,03,28,05,10,-17.10
2021,03,28,05,11,-17.20
2021,03,28,05,12,-17.20
2021,03,28,05,13,-17.20
2021,03,28,05,14,-17.30
2021,03,28,05,15,-17.30
2021,03,28,05,16,-17.40
2021,03,28,05,17,-17.40
2021,03,28,05,18,-17.40
2021,03,28,05,19,-17.50
2021,03,28,05,20,-17.50
2021,03,28,05,21,-17.60
2021,03,28,05,22,-17.60
2021,03,28,05,23,-17.60
2021,03,28,05,24,-17.70
2021,03,28,05,25,-17.70
2021,03,28,05,26,-17.70
2021,03,28,05,27,-17.70
2021,03,28,05,28,-17.70
2021,03,28,05,29,-17.80
2021,03,28,05,30,-17.80
2021,03,28,05,31,-17.80
2021,03,28,05,32,-17.80
2021,03,28,05,33,-17.90
2021,03,28,05,34,-17.90
2021,03,28,05,35,-17.90
2021,03,28,05,36,-17.90
2021,03,28,05,37,-18.00
2021,03,28,05,38,-18.00
2021,03,28,05,39,-18.00
2021,03,28,05,40,-18.00
2021,03,28,05,41,-18.00
2021,03,28,05,42,-18.10
2021,03,28,05,43,-18.10
2021,03,28,05,44,-18.10
2021,03,28,05,45,-18.10
2021,03,28,05,46,-18.10
2021,03,28,05,47,-18.10
2021,03,28,05,48,-18.00
2021,03,28,05,49,-18.00
2021,03,28,05,50,-17.90
2021,03,28,05,51,-17.90
2021,03,28,05,52,-17.80
2021,03,28,05,53,-17.80
2021,03,28,05,54,-17.80
2021,03,28,05,55,-17.70
2021,03,28,05,56,-17.70
2021,03,28,05,57,-17.70
2021,03,28,05,58,-17.60
2021,03,28,05,59,-17.50
2021,03,28,06,00,-17.50
2021,03,28,06,01,-17.50
2021,03,28,06,02,-17.40
2021,03,28,06,03,-17.40
2021,03,28,06,04,-17.30
2021,03,28,06,05,-17.30
2021,03,28,06,06,-17.20
2021,03,28,06,07,-17.20
2021,03,28,06,08,-17.10
2021,03,28,06,09,-17.10
2021,03,28,06,10,-17.00
2021,03,28,06,11,-17.00
2021,03,28,06,12,-16.90
2021,03,28,06,13,-16.90
2021,03,28,06,14,-16.90
2021,03,28,06,15,-16.80
2021,03,28,06,16,-16.80
2021,03,28,06,17,-16.80
2021,03,28,06,18,-16.80
2021,03,28,06,19,-16.70
2021,03,28,06,20,-16.70
2021,03,28,06,21,-16.70
2021,03,28,06,22,-16.70
2021,03,28,06,23,-16.60
2021,03,28,06,24,-16.60
2021,03,28,06,25,-16.60
2021,03,28,06,26,-16.60
2021,03,28,06,27,-16.60
2021,03,28,06,28,-16.50
2021,03,28,06,29,-16.50
2021,03,28,06,30,-16.50
2021,03,28,06,31,-16.40
2021,03,28,06,32,-16.40
2021,03,28,06,33,-16.40
2021,03,28,06,34,-16.40
2021,03,28,06,35,-16.40
2021,03,28,06,36,-16.40
2021,03,28,06,37,-16.40
2021,03,28,06,38,-16.40
2021,03,28,06,39,-16.40
2021,03,28,06,40,-16.40
2021,03,28,06,41,-16.40
2021,03,28,06,42,-16.40
2021,03,28,06,43,-16.40
2021,03,28,06,44,-16.40
2021,03,28,06,45,-16.40
2021,03,28,06,46,-16.40
2021,03,28,06,47,-16.40
2021,03,28,06,48,-16.50
2021,03,28,06,49,-16.50
2021,03,28,06,50,-16.40
2021,03,28,06,51,-16.40
2021,03,28,06,52,-16.40
2021,03,28,06,53,-16.40
2021,03,28,06,54,-16.40
2021,03,28,06,55,-16.40
2021,03,28,06,56,-16.40
2021,03,28,06,57,-16.40
2021,03,28,06,58,-16.40
2021,03,28,06,59,-16.40
2021,03,28,07,00,-16.40
2021,03,28,07,01,-16.40
2021,03,28,07,02,-16.40
2021,03,28,07,03,-16.40
2021,03,28,07,04,-16.40
2021,03,28,07,05,-16.40
2021,03,28,07,06,-16.40
2021,03,28,07,07,-16.40
2021,03,28,07,08,-16.40
2021,03,28,07,09,-16.40
2021,03,28,07,10,-16.40
2021,03,28,07,11,-16.50
2021,03,28,07,12,-16.40
2021,03,28,07,13,-16.50
2021,03,28,07,14,-16.40
2021,03,28,07,15,-16.50
2021,03,28,07,16,-16.50
2021,03,28,07,17,-16.50
2021,03,28,07,18,-16.50
2021,03,28,07,19,-16.50
2021,03,28,07,20,-16.50
2021,03,28,07,21,-16.50
2021,03,28,07,22,-16.60
2021,03,28,07,23,-16.60
2021,03,28,07,24,-16.60
2021,03,28,07,25,-16.60
2021,03,28,07,26,-16.60
2021,03,28,07,27,-16.60
2021,03,28,07,28,-16.60
2021,03,28,07,29,-16.60
2021,03,28,07,30,-16.60
2021,03,28,07,31,-16.60
2021,03,28,07,32,-16.60
2021,03,28,07,33,-16.60
2021,03,28,07,34,-16.60
2021,03,28,07,35,-16.70
2021,03,28,07,36,-16.70
2021,03,28,07,37,-16.70
2021,03,28,07,38,-16.70
2021,03,28,07,39,-16.70
2021,03,28,07,40,-16.70
2021,03,28,07,41,-16.70
2021,03,28,07,42,-16.80
2021,03,28,07,43,-16.80
2021,03,28,07,44,-16.80
2021,03,28,07,45,-16.80
2021,03,28,07,46,-16.80
2021,03,28,07,47,-16.80
2021,03,28,07,48,-16.80
2021,03,28,07,49,-16.90
2021,03,28,07,50,-16.90
2021,03,28,07,51,-16.90
2021,03,28,07,52,-16.90
2021,03,28,07,53,-16.90
2021,03,28,07,54,-16.90
2021,03,28,07,55,-16.90
2021,03,28,07,56,-16.90
2021,03,28,07,57,-16.90
2021,03,28,07,58,-16.90
2021,03,28,07,59,-16.90
2021,03,28,08,00,-16.90
2021,03,28,08,01,-16.90
2021,03,28,08,02,-16.90
2021,03,28,08,03,-17.00
2021,03,28,08,04,-17.00
2021,03,28,08,05,-17.00
2021,03,28,08,06,-17.00
2021,03,28,08,07,-17.10
2021,03,28,08,08,-17.10
2021,03,28,08,09,-17.10
2021,03,28,08,10,-17.20
2021,03,28,08,11,-17.20
2021,03,28,08,12,-17.20
2021,03,28,08,13,-17.20
2021,03,28,08,14,-17.30
2021,03,28,08,15,-17.30
2021,03,28,08,16,-17.40
2021,03,28,08,17,-17.40
2021,03,28,08,18,-17.40
2021,03,28,08,19,-17.50
2021,03,28,08,20,-17.50
2021,03,28,08,21,-17.50
2021,03,28,08,22,-17.50
2021,03,28,08,23,-17.60
2021,03,28,08,24,-17.60
2021,03,28,08,25,-17.60
2021,03,28,08,26,-17.60
2021,03,28,08,27,-17.60
2021,03,28,08,28,-17.60
2021,03,28,08,29,-17.60
2021,03,28,08,30,-17.60
2021,03,28,08,31,-17.70
2021,03,28,08,32,-17.70
2021,03,28,08,33,-17.70
2021,03,28,08,34,-17.70
2021,03,28,08,35,-17.70
2021,03,28,08,36,-17.70
2021,03,28,08,37,-17.70
2021,03,28,08,38,-17.70
2021,03,28,08,39,-17.60
2021,03,28,08,40,-17.60
2021,03,28,08,41,-17.60
2021,03,28,08,42,-17.60
2021,03,28,08,43,-17.60
2021,03,28,08,44,-17.50
2021,03,28,08,45,-17.50
2021,03,28,08,46,-17.40
2021,03,28,08,47,-17.40
2021,03,28,08,48,-17.40
2021,03,28,08,49,-17.40
2021,03,28,08,50,-17.40
2021,03,28,08,51,-17.40
2021,03,28,08,52,-17.40
2021,03,28,08,53,-17.40
2021,03,28,08,54,-17.40
2021,03,28,08,55,-17.40
2021,03,28,08,56,-17.40
2021,03,28,08,57,-17.40
2021,03,28,08,58,-17.40
2021,03,28,08,59,-17.50
2021,03,28,09,00,-17.70
2021,03,28,09,01,-17.80
2021,03,28,09,02,-17.80
2021,03,28,09,03,-17.90
2021,03,28,09,04,-17.90
2021,03,28,09,05,-17.90
2021,03,28,09,06,-18.00
2021,03,28,09,07,-18.00
2021,03,28,09,08,-18.00
2021,03,28,09,09,-18.00
2021,03,28,09,10,-18.10
2021,03,28,09,11,-18.10
2021,03,28,09,12,-18.10
2021,03,28,09,13,-18.10
2021,03,28,09,14,-18.10
2021,03,28,09,15,-18.10
2021,03,28,09,16,-18.10
2021,03,28,09,17,-18.10
2021,03,28,09,18,-18.10
2021,03,28,09,19,-18.10
2021,03,28,09,20,-18.10
2021,03,28,09,21,-18.10
2021,03,28,09,22,-18.10
2021,03,28,09,23,-18.00
2021,03,28,09,24,-18.00
2021,03,28,09,25,-18.00
2021,03,28,09,26,-18.00
2021,03,28,09,27,-18.00
2021,03,28,09,28,-17.90
2021,03,28,09,29,-17.90
2021,03,28,09,30,-17.90
2021,03,28,09,31,-17.90
2021,03,28,09,32,-17.90
2021,03,28,09,33,-17.90
2021,03,28,09,34,-17.80
2021,03,28,09,35,-17.80
2021,03,28,09,36,-17.80
2021,03,28,09,37,-17.80
2021,03,28,09,38,-17.80
2021,03,28,09,39,-17.80
2021,03,28,09,40,-17.80
2021,03,28,09,41,-17.80
2021,03,28,09,42,-17.90
2021,03,28,09,43,-17.90
2021,03,28,09,44,-17.90
2021,03,28,09,45,-17.90
2021,03,28,09,46,-17.90
2021,03,28,09,47,-17.90
2021,03,28,09,48,-17.90
2021,03,28,09,49,-17.90
2021,03,28,09,50,-17.90
2021,03,28,09,51,-17.90
2021,03,28,09,52,-17.90
2021,03,28,09,53,-17.80
2021,03,28,09,54,-17.80
2021,03,28,09,55,-17.80
2021,03,28,09,56,-17.80
2021,03,28,09,57,-17.80
2021,03,28,09,58,-17.80
2021,03,28,09,59,-17.80
2021,03,28,10,00,-17.80
2021,03,28,10,01,-17.70
2021,03,28,10,02,-17.70
2021,03,28,10,03,-17.70
2021,03,28,10,04,-17.70
2021,03,28,10,05,-17.60
2021,03,28,10,06,-17.60
2021,03,28,10,07,-17.60
2021,03,28,10,08,-17.60
2021,03,28,10,09,-17.60
2021,03,28,10,10,-17.50
2021,03,28,10,11,-17.50
2021,03,28,10,12,-17.50
2021,03,28,10,13,-17.40
2021,03,28,10,14,-17.40
2021,03,28,10,15,-17.30
2021,03,28,10,16,-17.30
2021,03,28,10,17,-17.20
2021,03,28,10,18,-17.10
2021,03,28,10,19,-17.10
2021,03,28,10,20,-17.00
2021,03,28,10,21,-17.00
2021,03,28,10,22,-16.90
2021,03,28,10,23,-16.90
2021,03,28,10,24,-16.80
2021,03,28,10,25,-16.70
2021,03,28,10,26,-16.70
2021,03,28,10,27,-16.70
2021,03,28,10,28,-16.60
2021,03,28,10,29,-16.50
2021,03,28,10,30,-16.40
2021,03,28,10,31,-16.40
2021,03,28,10,32,-16.30
2021,03,28,10,33,-16.30
2021,03,28,10,34,-16.20
2021,03,28,10,35,-16.10
2021,03,28,10,36,-16.00
2021,03,28,10,37,-15.90
2021,03,28,10,38,-15.80
2021,03,28,10,39,-15.60
2021,03,28,10,40,-15.50
2021,03,28,10,41,-15.40
2021,03,28,10,42,-15.20
2021,03,28,10,43,-15.10
2021,03,28,10,44,-15.00
2021,03,28,10,45,-14.80
2021,03,28,10,46,-14.70
2021,03,28,10,47,-14.60
2021,03,28,10,48,-14.60
2021,03,28,10,49,-14.60
2021,03,28,10,50,-14.50
2021,03,28,10,51,-14.20
2021,03,28,10,52,-14.10
2021,03,28,10,53,-14.00
2021,03,28,10,54,-13.90
2021,03,28,10,55,-13.80
2021,03,28,10,56,-13.70
2021,03,28,10,57,-13.60
2021,03,28,10,58,-13.60
2021,03,28,10,59,-13.50
2021,03,28,11,00,-13.40
2021,03,28,11,01,-13.30
2021,03,28,11,02,-13.20
2021,03,28,11,03,-13.00
2021,03,28,11,04,-12.90
2021,03,28,11,05,-12.80
2021,03,28,11,06,-12.70
2021,03,28,11,07,-12.60
2021,03,28,11,08,-12.40
2021,03,28,11,09,-12.30
2021,03,28,11,10,-12.20
2021,03,28,11,11,-12.00
2021,03,28,11,12,-11.90
2021,03,28,11,13,-11.80
2021,03,28,11,14,-11.60
2021,03,28,11,15,-11.50
2021,03,28,11,16,-11.40
2021,03,28,11,17,-11.40
2021,03,28,11,18,-11.30
2021,03,28,11,19,-11.20
2021,03,28,11,20,-11.10
2021,03,28,11,21,-11.00
2021,03,28,11,22,-10.90
2021,03,28,11,23,-10.80
2021,03,28,11,24,-10.70
2021,03,28,11,25,-10.60
2021,03,28,11,26,-10.50
2021,03,28,11,27,-10.40
2021,03,28,11,28,-10.30
2021,03,28,11,29,-10.10
2021,03,28,11,30,-10.00
2021,03,28,11,31,-9.80
2021,03,28,11,32,-9.70
2021,03,28,11,33,-9.60
2021,03,28,11,34,-9.50
2021,03,28,11,35,-9.30
2021,03,28,11,36,-9.20
2021,03,28,11,37,-9.00
2021,03,28,11,38,-8.90
2021,03,28,11,39,-8.70
2021,03,28,11,40,-8.60
2021,03,28,11,41,-8.50
2021,03,28,11,42,-8.40
2021,03,28,11,43,-8.30
2021,03,28,11,44,-8.30
2021,03,28,11,45,-8.30
2021,03,28,11,46,-8.20
2021,03,28,11,47,-8.30
2021,03,28,11,48,-8.30
2021,03,28,11,49,-8.30
2021,03,28,11,50,-8.30
2021,03,28,11,51,-8.30
2021,03,28,11,52,-8.30
2021,03,28,11,53,-8.30
2021,03,28,11,54,-8.30
2021,03,28,11,55,-8.30
2021,03,28,11,56,-8.30
2021,03,28,11,57,-8.30
2021,03,28,11,58,-8.30
2021,03,28,11,59,-8.30
2021,03,28,12,00,-8.20
2021,03,28,12,01,-8.20
2021,03,28,12,02,-8.20
2021,03,28,12,03,-8.10
2021,03,28,12,04,-8.10
2021,03,28,12,05,-8.10
2021,03,28,12,06,-8.10
2021,03,28,12,07,-8.10
2021,03,28,12,08,-8.10
2021,03,28,12,09,-8.10
2021,03,28,12,10,-8.20
2021,03,28,12,11,-8.20
2021,03,28,12,12,-8.20
2021,03,28,12,13,-8.20
2021,03,28,12,14,-8.20
2021,03,28,12,15,-8.30
2021,03,28,12,16,-8.30
2021,03,28,12,17,-8.30
2021,03,28,12,18,-8.30
2021,03,28,12,19,-8.20
2021,03,28,12,20,-8.20
2021,03,28,12,21,-8.20
2021,03,28,12,22,-8.10
2021,03,28,12,23,-8.10
2021,03,28,12,24,-8.10
2021,03,28,12,25,-8.10
2021,03,28,12,26,-8.20
2021,03,28,12,27,-8.20
2021,03,28,12,28,-8.20
2021,03,28,12,29,-8.30
2021,03,28,12,30,-8.30
2021,03,28,12,31,-8.30
2021,03,28,12,32,-8.40
2021,03,28,12,33,-8.50
2021,03,28,12,34,-8.50
2021,03,28,12,35,-8.60
2021,03,28,12,36,-8.60
2021,03,28,12,37,-8.60
2021,03,28,12,38,-8.60
2021,03,28,12,39,-8.70
2021,03,28,12,40,-8.70
2021,03,28,12,41,-8.70
2021,03,28,12,42,-8.70
2021,03,28,12,43,-8.70
2021,03,28,12,44,-8.70
2021,03,28,12,45,-8.70
2021,03,28,12,46,-8.70
2021,03,28,12,47,-8.60
2021,03,28,12,48,-8.50
2021,03,28,12,49,-8.40
2021,03,28,12,50,-8.30
2021,03,28,12,51,-8.30
2021,03,28,12,52,-8.20
2021,03,28,12,53,-8.20
2021,03,28,12,54,-8.10
2021,03,28,12,55,-8.00
2021,03,28,12,56,-8.00
2021,03,28,12,57,-7.90
2021,03,28,12,58,-7.90
2021,03,28,12,59,-7.90
2021,03,28,13,00,-7.90
2021,03,28,13,01,-7.90
2021,03,28,13,02,-8.00
2021,03,28,13,03,-8.00
2021,03,28,13,04,-8.00
2021,03,28,13,05,-7.90
2021,03,28,13,06,-7.90
2021,03,28,13,07,-7.90
2021,03,28,13,08,-7.90
2021,03,28,13,09,-7.80
2021,03,28,13,10,-7.80
2021,03,28,13,11,-7.70
2021,03,28,13,12,-7.70
2021,03,28,13,13,-7.60
2021,03,28,13,14,-7.50
2021,03,28,13,15,-7.40
2021,03,28,13,16,-7.30
2021,03,28,13,17,-7.30
2021,03,28,13,18,-7.20
2021,03,28,13,19,-7.10
2021,03,28,13,20,-7.10
2021,03,28,13,21,-7.00
2021,03,28,13,22,-7.00
2021,03,28,13,23,-7.00
2021,03,28,13,24,-7.00
2021,03,28,13,25,-7.10
2021,03,28,13,26,-7.10
2021,03,28,13,27,-7.20
2021,03,28,13,28,-7.20
2021,03,28,13,29,-7.20
2021,03,28,13,30,-7.20
2021,03,28,13,31,-7.20
2021,03,28,13,32,-7.20
2021,03,28,13,33,-7.20
2021,03,28,13,34,-7.20
2021,03,28,13,35,-7.20
2021,03,28,13,36,-7.20
2021,03,28,13,37,-7.30
2021,03,28,13,38,-7.30
2021,03,28,13,39,-7.30
2021,03,28,13,40,-7.30
2021,03,28,13,41,-7.30
2021,03,28,13,42,-7.30
2021,03,28,13,43,-7.30
2021,03,28,13,44,-7.30
2021,03,28,13,45,-7.20
2021,03,28,13,46,-7.20
2021,03,28,13,47,-7.20
2021,03,28,13,48,-7.20
2021,03,28,13,49,-7.20
2021,03,28,13,50,-7.20
2021,03,28,13,51,-7.20
2021,03,28,13,52,-7.20
2021,03,28,13,53,-7.20
2021,03,28,13,54,-7.20
2021,03,28,13,55,-7.30
2021,03,28,13,56,-7.30
2021,03,28,13,57,-7.30
2021,03,28,13,58,-7.30
2021,03,28,13,59,-7.30
2021,03,28,14,00,-7.30
2021,03,28,14,01,-7.30
2021,03,28,14,02,-7.30
2021,03,28,14,03,-7.30
2021,03,28,14,04,-7.30
2021,03,28,14,05,-7.30
2021,03,28,14,06,-7.30
2021,03,28,14,07,-7.30
2021,03,28,14,08,-7.30
2021,03,28,14,09,-7.20
2021,03,28,14,10,-7.20
2021,03,28,14,11,-7.20
2021,03,28,14,12,-7.20
2021,03,28,14,13,-7.10
2021,03,28,14,14,-7.10
2021,03,28,14,15,-7.10
2021,03,28,14,16,-7.00
2021,03,28,14,17,-7.00
2021,03,28,14,18,-7.00
2021,03,28,14,19,-7.00
2021,03,28,14,20,-7.00
2021,03,28,14,21,-7.00
2021,03,28,14,22,-7.00
2021,03,28,14,23,-7.10
2021,03,28,14,24,-7.10
2021,03,28,14,25,-7.10
2021,03,28,14,26,-7.10
2021,03,28,14,27,-7.10
2021,03,28,14,28,-7.20
2021,03,28,14,29,-7.30
2021,03,28,14,30,-7.30
2021,03,28,14,31,-7.30
2021,03,28,14,32,-7.30
2021,03,28,14,33,-7.40
2021,03,28,14,34,-7.40
2021,03,28,14,35,-7.40
2021,03,28,14,36,-7.40
2021,03,28,14,37,-7.40
2021,03,28,14,38,-7.50
2021,03,28,14,39,-7.50
2021,03,28,14,40,-7.50
2021,03,28,14,41,-7.60
2021,03,28,14,42,-7.60
2021,03,28,14,43,-7.70
2021,03,28,14,44,-7.70
2021,03,28,14,45,-7.80
2021,03,28,14,46,-7.80
2021,03,28,14,47,-7.80
2021,03,28,14,48,-7.80
2021,03,28,14,49,-7.80
2021,03,28,14,50,-7.80
2021,03,28,14,51,-7.80
2021,03,28,14,52,-7.80
2021,03,28,14,53,-7.70
2021,03,28,14,54,-7.70
2021,03,28,14,55,-7.70
2021,03,28,14,56,-7.70
2021,03,28,14,57,-7.70
2021,03,28,14,58,-7.70
2021,03,28,14,59,-7.70
2021,03,28,15,00,-7.70
2021,03,28,15,01,-7.70
2021,03,28,15,02,-7.70
2021,03,28,15,03,-7.70
2021,03,28,15,04,-7.70
2021,03,28,15,05,-7.70
2021,03,28,15,06,-7.70
2021,03,28,15,07,-7.70
2021,03,28,15,08,-7.70
2021,03,28,15,09,-7.70
2021,03,28,15,10,-7.70
2021,03,28,15,11,-7.60
2021,03,28,15,12,-7.60
2021,03,28,15,13,-7.60
2021,03,28,15,14,-7.50
2021,03,28,15,15,-7.50
2021,03,28,15,16,-7.40
2021,03,28,15,17,-7.30
2021,03,28,15,18,-7.20
2021,03,28,15,19,-7.20
2021,03,28,15,20,-7.10
2021,03,28,15,21,-7.00
2021,03,28,15,22,-6.90
2021,03,28,15,23,-6.90
2021,03,28,15,24,-6.80
2021,03,28,15,25,-6.80
2021,03,28,15,26,-6.70
2021,03,28,15,27,-6.70
2021,03,28,15,28,-6.60
2021,03,28,15,29,-6.60
2021,03,28,15,30,-6.60
2021,03,28,15,31,-6.60
2021,03,28,15,32,-6.70
2021,03,28,15,33,-6.70
2021,03,28,15,34,-6.80
2021,03,28,15,35,-6.80
2021,03,28,15,36,-6.90
2021,03,28,15,37,-6.90
2021,03,28,15,38,-6.90
2021,03,28,15,39,-6.90
2021,03,28,15,40,-6.90
2021,03,28,15,41,-6.90
2021,03,28,15,42,-6.90
2021,03,28,15,43,-6.80
2021,03,28,15,44,-6.80
2021,03,28,15,45,-6.80
2021,03,28,15,46,-6.80
2021,03,28,15,47,-6.80
2021,03,28,15,48,-6.90
2021,03,28,15,49,-6.90
2021,03,28,15,50,-6.90
2021,03,28,15,51,-6.90
2021,03,28,15,52,-6.90
2021,03,28,15,53,-6.80
2021,03,28,15,54,-6.80
2021,03,28,15,55,-6.80
2021,03,28,15,56,-6.70
2021,03,28,15,57,-6.70
2021,03,28,15,58,-6.70
2021,03,28,15,59,-6.60
2021,03,28,16,00,-6.60
2021,03,28,16,01,-6.60
2021,03,28,16,02,-6.60
2021,03,28,16,03,-6.60
2021,03,28,16,04,-6.60
2021,03,28,16,05,-6.60
2021,03,28,16,06,-6.60
2021,03,28,16,07,-6.60
2021,03,28,16,08,-6.60
2021,03,28,16,09,-6.60
2021,03,28,16,10,-6.70
2021,03,28,16,11,-6.70
2021,03,28,16,12,-6.70
2021,03,28,16,13,-6.70
2021,03,28,16,14,-6.70
2021,03,28,16,15,-6.60
2021,03,28,16,16,-6.60
2021,03,28,16,17,-6.60
2021,03,28,16,18,-6.60
2021,03,28,16,19,-6.60
2021,03,28,16,20,-6.60
2021,03,28,16,21,-6.60
2021,03,28,16,22,-6.60
2021,03,28,16,23,-6.70
2021,03,28,16,24,-6.70
2021,03,28,16,25,-6.70
2021,03,28,16,26,-6.80
2021,03,28,16,27,-6.80
2021,03,28,16,28,-6.80
2021,03,28,16,29,-6.80
2021,03,28,16,30,-6.80
2021,03,28,16,31,-6.80
2021,03,28,16,32,-6.70
2021,03,28,16,33,-6.70
2021,03,28,16,34,-6.70
2021,03,28,16,35,-6.70
2021,03,28,16,36,-6.70
2021,03,28,16,37,-6.70
2021,03,28,16,38,-6.70
2021,03,28,16,39,-6.60
2021,03,28,16,40,-6.60
2021,03,28,16,41,-6.50
2021,03,28,16,42,-6.50
2021,03,28,16,43,-6.50
2021,03,28,16,44,-6.40
2021,03,28,16,45,-6.40
2021,03,28,16,46,-6.40
2021,03,28,16,47,-6.40
2021,03,28,16,48,-6.40
2021,03,28,16,49,-6.40